Regional Weather Roundup
Issued by NWS

Home | Current Version | Previous Version | Text Only | Print | Product List | Glossary Off
Versions: 1 2 3 4 5 6 7 8 9 10 11 12 13 14 15 16 17 18 19 20 21 22 23 24 25 26 27 28 29 30 31 32 33 34 35 36 37 38 39 40 41 42 43 44 45 46 47 48 49 50

000
ASUS43 KMPX 280001
RWRMN
WEATHER ROUNDUP FOR MINNESOTA
NATIONAL WEATHER SERVICE TWIN CITIES/CHANHASSEN MN
600 PM CST THU NOV 27 2014


NOTE: "FAIR" INDICATES FEW OR NO CLOUDS BELOW 12,000 FEET WITH NO
SIGNIFICANT WEATHER AND/OR OBSTRUCTIONS TO VISIBILITY. N/A MEANS
CURRENT SKY AND/OR WEATHER CONDITIONS ARE NOT AVAILABLE.

MNZ060>063-068>070-280100-
   Twin Cities Metro

CITY           SKY/WX    TMP DP  RH WIND       PRES   REMARKS
TWIN CITIES    PTCLDY     7  -5  57 S6        30.39F WCI  -3
6HR MIN TEMP:   5; 6HR MAX TEMP:   9;

ST PAUL        PTCLDY     8  -2  63 S7        30.41F WCI  -3
CRYSTAL        PTCLDY     9  -2  61 S8        30.36F WCI  -3
BLAINE         PTCLDY    10   0  61 CALM      30.37F
LAKEVILLE      PTCLDY     1  -4  78 CALM      30.38F
EDEN PRAIRIE   PTCLDY     5  -4  66 S7        30.37F WCI  -7
6HR MIN TEMP:   4; 6HR MAX TEMP:   9;

SOUTH ST PAUL  PTCLDY     7  -3  63 S3        30.40F
LAKE ELMO      FAIR       9   1  72 S5        30.39F WCI   0
$$
MNZ001>005-007-008-013>017-022>024-027-028-280100-
   Northwest Minnesota

CITY           SKY/WX    TMP DP  RH WIND       PRES   REMARKS
BEMIDJI        MOCLDY     4  -4  68 SE9       30.23F WCI -10
HALLOCK        MOCLDY     5  -4  66 S15       30.25F WCI -13
ROSEAU         MOCLDY     3  -4  72 S9          N/A  WCI -11
WARROAD        PTCLDY     3  -4  72 S7        30.25F WCI  -9
THIEF RVR FALL CLOUDY     3  -2  78 SE7       30.24F WCI  -9
CROOKSTON      CLOUDY     7  -2  66 S7        30.27F WCI  -5
FOSSTON        PTCLDY     1  -4  78 CALM      30.23F
DETROIT LAKES  FAIR       9   0  66 S9        30.23F WCI  -5
MOORHEAD       PTCLDY     9   1  72 S12       30.26F WCI  -6
PARK RAPIDS    PTCLDY     6  -5  60 SE6       30.23F WCI  -4
MAHNOMEN       FAIR       6  -3  67 S9        30.24F WCI  -8
$$
MNZ006-009>011-018-025>026-280100-
   North Central Minnesota

CITY           SKY/WX    TMP DP  RH WIND       PRES   REMARKS
BAUDETTE       PTCLDY     1  -7  68 S6        30.25F WCI -10
FLAG ISLAND    PTCLDY     1  -4  78 SE5       30.23F WCI  -8
INTL FALLS     PTCLDY    -4  -9  79 CALM      30.28F
6HR MIN TEMP:  -6; 6HR MAX TEMP:   3;

WASKISH        PTCLDY     1  -4  78 CALM      30.26F
BIG FORK       PTCLDY     0  -6  78 CALM      30.27F
LONGVILLE      PTCLDY     5  -4  66 S5        30.27F WCI  -4
GRAND RAPIDS   PTCLDY     0  -6  78 CALM      30.25F
CRANE LAKE     CLEAR     -6  -9  84 CALM      30.32F
ORR            CLEAR     -2  -9  71 CALM      30.25F
COOK           CLEAR     -6  -9  84 CALM      30.28F
WALKER         FAIR       5  -5  62 CALM      30.26F
$$
MNZ012-019>021-037-280100-
   Northeast Minnesota

CITY           SKY/WX    TMP DP  RH WIND       PRES   REMARKS
DULUTH         PTCLDY     2  -9  60 CALM      30.29F
6HR MIN TEMP:   2; 6HR MAX TEMP:  10;

ELY            PTCLDY    -8 -11  84 CALM      30.28F
HIBBING        PTCLDY    -2  -8  76 CALM      30.28F
EVELETH        PTCLDY     0  -8  71 CALM      30.29F
DULUTH HARBOR  PTCLDY    10  -2  56 CALM      30.38F
TWO HARBORS    PTCLDY     7  -6  56 NW3       30.31F
SILVER BAY     PTCLDY     5  -6  61 CALM      30.31S
GRAND MARAIS     N/A      6  -4  63 NW6       30.36F WCI  -4
G MARAIS ARPRT PTCLDY    -8 -11  84 CALM      30.23F
$$
MNZ029>031-032-039>041-046>048-054>057-064-280100-
   West Central Minnesota

CITY           SKY/WX    TMP DP  RH WIND       PRES   REMARKS
FERGUS FALLS   CLOUDY     7  -6  56 SE14      30.29F WCI -10
WHEATON        CLOUDY     3  -2  78 SE15      30.28F WCI -15
MORRIS         MOCLDY     5  -2  72 SE16      30.26F WCI -14
ALEXANDRIA     CLOUDY     5  -2  72 SE9       30.27F WCI  -9
ELBOW LAKE     CLOUDY     4  -4  68 SE13      30.26F HAZE    WCI -13
WADENA         CLOUDY     3  -4  72 S7        30.25F WCI  -9
GLENWOOD       CLEAR      5  -2  72 SE10      30.27F WCI -10
APPLETON       PTCLDY     7  -2  66 SE12      30.28F WCI  -9
BENSON         MOCLDY     5  -2  72 S10       30.28F WCI -10
ORTONVILLE     MOCLDY     5  -2  72 SE16      30.25F WCI -14
MADISON        PTCLDY    10   1  67 SE17      30.27F WCI  -7
WILLMAR        FAIR       5  -2  72 SE10      30.31F WCI -10
$$
MNZ033>034-036-042>043-049>051-058-059-280100-
   Central Minnesota

CITY           SKY/WX    TMP DP  RH WIND       PRES   REMARKS
ST CLOUD       PTCLDY     7  -4  60 SE6       30.34F WCI  -3
6HR MIN TEMP:   4; 6HR MAX TEMP:   8;

SAUK CENTRE    MOCLDY     4  -4  69 SE7       30.28F WCI  -8
PAYNESVILLE    CLOUDY     2  -4  76 E7        30.32F WCI -10
AITKIN         PTCLDY     9  -2  61 CALM      30.29F
PINE RIVER     PTCLDY     5  -4  66 S5        30.30F WCI  -4
BRAINERD       PTCLDY     4  -5  66 S8        30.31F WCI  -9
STAPLES        CLOUDY     3  -6  66 SE5       30.27F WCI  -6
LONG PRAIRIE   FAIR       3  -4  72 E6        30.28F WCI  -8
LITTLE FALLS   PTCLDY     5  -6  61 SE3       30.33S
LITCHFIELD     CLOUDY     7  -2  66 SE5       30.34S WCI  -2
BUFFALO        PTCLDY     6  -3  67 S3        30.37F
MAPLE LAKE     PTCLDY     6  -1  71 S5        30.36F WCI  -3
$$
MNZ037-044-045-052-053-280100-
   East Central Minnesota

CITY           SKY/WX    TMP DP  RH WIND       PRES   REMARKS
PRINCETON      PTCLDY     7  -2  66 CALM      30.36S
MORA             N/A    N/A N/A N/A MISG        N/A
CAMBRIDGE      PTCLDY     9  -2  61 S6        30.35F WCI  -1
RUSH CITY      PTCLDY     6  -3  67 CALM      30.37F
MOOSE LAKE     PTCLDY     5  -4  66 CALM      30.31F
HINCKLEY       FAIR       9   0  66 CALM      30.35F
CLOQUET        PTCLDY     1  -6  71 CALM      30.30F
MCGREGOR       PTCLDY     7   0  72 CALM      30.31F
$$
MNZ071>073-080-081-089-090-097-098-280100-
   Southwest Minnesota

CITY           SKY/WX    TMP DP  RH WIND       PRES   REMARKS
MONTEVIDEO     CLOUDY     5  -2  72 S12       30.30F WCI -11
GRANITE FALLS  CLOUDY     3  -4  71 SE12      30.31F WCI -13
CANBY          CLOUDY     7   2  80 SE10      30.27F WCI  -7
MARSHALL       CLOUDY     7   0  72 SE13      30.25F WCI  -9
REDWOOD FALLS  CLOUDY     2  -4  76 SE14      30.33F WCI -16
OLIVIA         PTCLDY     5  -2  72 SE10      30.31F WCI -10
PIPESTONE      CLOUDY    10   3  72 S12       30.19F WCI  -4
WINDOM         CLOUDY     3  -4  72 SE10      30.29F WCI -12
WORTHINGTON    CLOUDY     9   1  72 SE14      30.24F WCI  -8
JACKSON        CLOUDY     5  -4  66 SE10      30.29F WCI -10
TRACY          CLOUDY    10   2  69 SE12      30.27F WCI  -5
SLAYTON        CLOUDY     9   0  66 SE14      30.23F WCI  -8
$$
MNZ065>067-074>077-082>085-091>093-280100-
   South Central Minnesota

CITY           SKY/WX    TMP DP  RH WIND       PRES   REMARKS
MANKATO        CLOUDY     0  -8  71 SE7       30.36F WCI -13
NEW ULM        MOCLDY     0  -6  78 SE7       30.36F WCI -13
ST JAMES       MOCLDY     1  -4  78 SE9       30.35F WCI -14
FAIRMONT       MOCLDY     0  -8  71 SE7       30.33F WCI -13
GLENCOE        PTCLDY     4  -2  76 SE5       30.35F WCI  -6
FARIBAULT      MOCLDY     1  -6  71 S3        30.37F
OWATONNA       PTCLDY     0  -6  78 S3        30.36F
WASECA         CLOUDY    -4  -9  77 CALM      30.39F
ALBERT LEA     MOCLDY     1  -6  71 SE2       30.36S
$$
MNZ078>079-086>088-094>096-280100-
   Southeast Minnesota

CITY           SKY/WX    TMP DP  RH WIND       PRES   REMARKS
ROCHESTER      PTCLDY    -2  -8  76 SW7       30.36F WCI -15
6HR MIN TEMP:  -3; 6HR MAX TEMP:   5;

RED WING       PTCLDY     7  -2  66 CALM      30.40F
STANTON        PTCLDY     1  -6  71 S3        30.39S
DODGE CENTER   PTCLDY    -6  -8  92 CALM      30.34F
WINONA         PTCLDY    10   1  67 CALM      30.43S
AUSTIN         PTCLDY    -4  -9  77 SW3       30.37S
PRESTON        MOCLDY     2  -5  74 CALM      30.37F
$$
ABBREVIATIONS USED IN REMARKS
   TC - TEMPERATURES IN CELSIUS
  WCI - WIND CHILL INDEX
   HX - HEAT INDEX
  VSB - VISIBILITY
$$


USA.gov is the U.S. government's official web portal to all federal, state and local government web resources and services.